Regional Weather Roundup
Issued by NWS

Home | Current Version | Previous Version | Graphics & Text | Print | Product List | Glossary On
Versions: 1 2 3 4 5 6 7 8 9 10 11 12 13 14 15 16 17 18 19 20 21 22 23 24 25 26 27 28 29 30 31 32 33 34 35 36 37 38 39 40 41 42 43 44 45 46 47 48 49 50
000
ASUS45 KCYS 311310
RWRWY

WYOMING REGIONAL WEATHER ROUNDUP
NATIONAL WEATHER SERVICE CHEYENNE WY
700 AM MDT FRI JUL 31 2015

NOTE:  "FAIR" INDICATES FEW OR NO CLOUDS BELOW 12,000 FEET
WITH NO SIGNIFICANT WEATHER AND/OR OBSTRUCTIONS TO VISIBILITY.

WYZ001-311400-
YELLOWSTONE NATIONAL PARK

CITY           SKY/WX    TMP DP  RH WIND       PRES   REMARKS
LK YELLOWSTONE   N/A     37  33  85 NW3       30.54R
W YELLOWSTONE  NOT AVBL

$$
WYZ002>013-054>058-071-098>099-311400-
NORTHERN WYOMING

CITY           SKY/WX    TMP DP  RH WIND       PRES   REMARKS
JACKSON        CLEAR     43  36  75 CALM      30.45R
CODY           FAIR      63  36  36 SW3       30.32S
GREYBULL       FAIR      56  41  57 CALM      30.26R
WORLAND        FAIR      56  31  38 CALM      30.27S
SHERIDAN       FAIR      56  46  69 CALM      30.25S
BUFFALO        FAIR      68  38  33 W7        30.31S
GILLETTE       FAIR      64  46  52 SE5       30.27S
HULETT         FAIR      59  43  55 CALM      30.29R
NEWCASTLE      FAIR      63  43  48 N8        30.28S

$$
WYZ014>020-022>026-101>103-311400-
CENTRAL WYOMING

CITY           SKY/WX    TMP DP  RH WIND       PRES   REMARKS
BIG PINEY      FAIR      43  30  60 CALM      30.45S
PINEDALE       FAIR      41  32  70 W5        30.47R
DUBOIS         FAIR      45  30  57 NW10      30.48S
LANDER         FAIR      58  28  32 VRB3      30.35R
RIVERTON       FAIR      59  32  36 NW8       30.36R
CASPER         FAIR      54  36  50 CALM      30.35R
DOUGLAS        FAIR      56  43  61 N3        30.34R

$$
WYZ021-027>030-104>119-311400-
SOUTHERN WYOMING

CITY           SKY/WX    TMP DP  RH WIND       PRES   REMARKS
EVANSTON       FAIR      53  25  33 SE5       30.44R
KEMMERER       FAIR      50  30  46 N7        30.46R
FORT BRIDGER   SUNNY     59  27  29 W7        30.46S
ROCK SPRINGS   FAIR      51  22  31 S5        30.42R
DIXON          FAIR      52  31  44 NE3       30.43R
RAWLINS        FAIR      54  32  43 CALM      30.44R
SARATOGA       FAIR      45  36  70 CALM      30.46R
LARAMIE        FAIR      50  45  83 S3        30.47R
CHEYENNE       FAIR      59  51  75 W8        30.39R
TORRINGTON     FAIR      57  51  80 NW3       30.27R
PINE BLUFFS    FAIR      54  50  87 CALM      30.34R

$$



USA.gov is the U.S. government's official web portal to all federal, state and local government web resources and services.